Time,TemperatureF,DewpointF,PressureIn,WindDirection,WindDirectionDegrees,WindSpeedMPH,WindSpeedGustMPH,Humidity,HourlyPrecipIn,Conditions,Clouds,dailyrainin,SoftwareType,DateUTC
2013-01-16 00:04:00,31.0,13.1,30.21,WSW,244,2.0,9.0,47,0.00,,,0.00,Wunderground v.1.15,2013-01-16 07:04:00,
2013-01-16 00:09:00,31.2,13.3,30.21,WSW,239,8.0,11.0,47,0.00,,,0.00,Wunderground v.1.15,2013-01-16 07:09:00,
2013-01-16 00:14:00,31.3,13.4,30.21,West,260,2.0,8.0,47,0.00,,,0.00,Wunderground v.1.15,2013-01-16 07:14:00,
2013-01-16 00:20:00,31.0,12.6,30.22,WNW,294,6.0,18.0,46,0.00,,,0.00,Wunderground v.1.15,2013-01-16 07:20:00,
2013-01-16 00:25:00,30.6,12.7,30.22,West,264,15.0,15.0,47,0.00,,,0.00,Wunderground v.1.15,2013-01-16 07:25:00,
2013-01-16 00:30:00,30.6,13.2,30.22,SW,229,6.0,15.0,48,0.00,,,0.00,Wunderground v.1.15,2013-01-16 07:30:00,
2013-01-16 00:35:00,31.2,13.3,30.22,WNW,289,6.0,15.0,47,0.00,,,0.00,Wunderground v.1.15,2013-01-16 07:35:00,
2013-01-16 00:40:00,31.8,13.8,30.22,WSW,240,10.0,15.0,47,0.00,,,0.00,Wunderground v.1.15,2013-01-16 07:40:00,
2013-01-16 00:45:00,31.9,13.4,30.22,SW,233,4.0,13.0,46,0.00,,,0.00,Wunderground v.1.15,2013-01-16 07:45:00,
2013-01-16 00:50:00,31.9,13.4,30.21,WSW,250,6.0,9.0,46,0.00,,,0.00,Wunderground v.1.15,2013-01-16 07:50:00,
2013-01-16 00:57:00,31.9,13.4,30.21,SW,236,6.0,11.0,46,0.00,,,0.00,Wunderground v.1.15,2013-01-16 07:57:00,
2013-01-16 01:02:00,32.1,13.6,30.20,WSW,254,7.0,8.0,46,0.00,,,0.00,Wunderground v.1.15,2013-01-16 08:02:00,
2013-01-16 01:07:00,32.2,13.7,30.20,WSW,240,1.0,10.0,46,0.00,,,0.00,Wunderground v.1.15,2013-01-16 08:07:00,
2013-01-16 01:12:00,32.1,13.6,30.20,WSW,246,6.0,8.0,46,0.00,,,0.00,Wunderground v.1.15,2013-01-16 08:12:00,
2013-01-16 01:17:00,32.2,13.7,30.20,WSW,247,6.0,13.0,46,0.00,,,0.00,Wunderground v.1.15,2013-01-16 08:17:00,
2013-01-16 01:22:00,32.1,13.6,30.20,WSW,250,11.0,15.0,46,0.00,,,0.00,Wunderground v.1.15,2013-01-16 08:22:00,
2013-01-16 01:27:00,32.1,13.6,30.20,WSW,244,11.0,15.0,46,0.00,,,0.00,Wunderground v.1.15,2013-01-16 08:27:00,
2013-01-16 01:32:00,31.9,13.4,30.21,WNW,289,9.0,11.0,46,0.00,,,0.00,Wunderground v.1.15,2013-01-16 08:32:00,
2013-01-16 01:37:00,32.2,13.7,30.21,WSW,240,6.0,16.0,46,0.00,,,0.00,Wunderground v.1.15,2013-01-16 08:37:00,
2013-01-16 01:43:00,32.4,13.4,30.21,WNW,287,1.0,14.0,45,0.00,,,0.00,Wunderground v.1.15,2013-01-16 08:43:00,
2013-01-16 01:48:00,32.4,13.4,30.20,SW,220,10.0,14.0,45,0.00,,,0.00,Wunderground v.1.15,2013-01-16 08:48:00,
2013-01-16 01:53:00,32.4,13.4,30.20,WSW,237,9.0,10.0,45,0.00,,,0.00,Wunderground v.1.15,2013-01-16 08:53:00,
2013-01-16 01:59:00,32.7,13.2,30.20,SW,233,4.0,13.0,44,0.00,,,0.00,Wunderground v.1.15,2013-01-16 08:59:00,
2013-01-16 02:04:00,32.8,13.8,30.20,WSW,256,2.0,11.0,45,0.00,,,0.00,Wunderground v.1.15,2013-01-16 09:04:00,
2013-01-16 02:09:00,32.5,13.5,30.20,WSW,254,2.0,11.0,45,0.00,,,0.00,Wunderground v.1.15,2013-01-16 09:09:00,
2013-01-16 02:14:00,32.5,14.0,30.20,SW,227,9.0,9.0,46,0.00,,,0.00,Wunderground v.1.15,2013-01-16 09:14:00,
2013-01-16 02:19:00,32.5,13.5,30.18,West,261,7.0,17.0,45,0.00,,,0.00,Wunderground v.1.15,2013-01-16 09:19:00,
2013-01-16 02:24:00,32.5,13.5,30.18,WSW,241,6.0,13.0,45,0.00,,,0.00,Wunderground v.1.15,2013-01-16 09:24:00,
2013-01-16 02:30:00,32.4,13.4,30.18,SW,230,7.0,13.0,45,0.00,,,0.00,Wunderground v.1.15,2013-01-16 09:30:00,
2013-01-16 02:35:00,32.2,13.2,30.18,WSW,251,4.0,14.0,45,0.00,,,0.00,Wunderground v.1.15,2013-01-16 09:35:00,
2013-01-16 02:40:00,31.8,12.3,30.18,WSW,240,7.0,14.0,44,0.00,,,0.00,Wunderground v.1.15,2013-01-16 09:40:00,
2013-01-16 02:45:00,31.5,12.6,30.18,WSW,248,7.0,16.0,45,0.00,,,0.00,Wunderground v.1.15,2013-01-16 09:45:00,
2013-01-16 02:50:00,31.3,12.4,30.19,WSW,243,8.0,8.0,45,0.00,,,0.00,Wunderground v.1.15,2013-01-16 09:50:00,
2013-01-16 02:55:00,31.3,12.9,30.19,WSW,240,7.0,13.0,46,0.00,,,0.00,Wunderground v.1.15,2013-01-16 09:55:00,
2013-01-16 03:00:00,31.3,12.4,30.19,WSW,237,4.0,7.0,45,0.00,,,0.00,Wunderground v.1.15,2013-01-16 10:00:00,
2013-01-16 03:06:00,31.3,12.9,30.20,WSW,257,8.0,13.0,46,0.00,,,0.00,Wunderground v.1.15,2013-01-16 10:06:00,
2013-01-16 03:11:00,31.9,12.9,30.20,SW,234,6.0,8.0,45,0.00,,,0.00,Wunderground v.1.15,2013-01-16 10:11:00,
2013-01-16 03:16:00,31.9,12.9,30.20,SW,224,8.0,11.0,45,0.00,,,0.00,Wunderground v.1.15,2013-01-16 10:16:00,
2013-01-16 03:21:00,31.9,12.4,30.18,WSW,254,2.0,7.0,44,0.00,,,0.00,Wunderground v.1.15,2013-01-16 10:21:00,
2013-01-16 03:27:00,31.9,12.9,30.18,SSW,209,2.0,15.0,45,0.00,,,0.00,Wunderground v.1.15,2013-01-16 10:27:00,
2013-01-16 03:32:00,31.9,12.9,30.17,South,186,7.0,11.0,45,0.00,,,0.00,Wunderground v.1.15,2013-01-16 10:32:00,
2013-01-16 03:37:00,31.5,12.1,30.17,WSW,239,10.0,11.0,44,0.00,,,0.00,Wunderground v.1.15,2013-01-16 10:37:00,
2013-01-16 03:42:00,30.9,12.0,30.17,West,268,7.0,15.0,45,0.00,,,0.00,Wunderground v.1.15,2013-01-16 10:42:00,
2013-01-16 03:47:00,30.9,12.0,30.19,WSW,257,6.0,15.0,45,0.00,,,0.00,Wunderground v.1.15,2013-01-16 10:47:00,
2013-01-16 03:52:00,30.7,11.8,30.19,WSW,244,9.0,10.0,45,0.00,,,0.00,Wunderground v.1.15,2013-01-16 10:52:00,
2013-01-16 03:57:00,30.6,11.7,30.19,West,274,8.0,17.0,45,0.00,,,0.00,Wunderground v.1.15,2013-01-16 10:57:00,
2013-01-16 04:02:00,30.1,11.3,30.19,WNW,288,6.0,10.0,45,0.00,,,0.00,Wunderground v.1.15,2013-01-16 11:02:00,
2013-01-16 04:07:00,29.8,12.0,30.19,WSW,241,4.0,10.0,47,0.00,,,0.00,Wunderground v.1.15,2013-01-16 11:07:00,
2013-01-16 04:12:00,30.0,12.2,30.19,West,277,4.0,9.0,47,0.00,,,0.00,Wunderground v.1.15,2013-01-16 11:12:00,
2013-01-16 04:17:00,30.4,12.5,30.20,West,260,6.0,9.0,47,0.00,,,0.00,Wunderground v.1.15,2013-01-16 11:17:00,
2013-01-16 04:22:00,31.0,13.1,30.20,SW,217,4.0,9.0,47,0.00,,,0.00,Wunderground v.1.15,2013-01-16 11:22:00,
2013-01-16 04:27:00,31.5,12.6,30.20,WSW,250,2.0,13.0,45,0.00,,,0.00,Wunderground v.1.15,2013-01-16 11:27:00,
2013-01-16 04:32:00,31.3,11.9,30.19,WSW,256,9.0,9.0,44,0.00,,,0.00,Wunderground v.1.15,2013-01-16 11:32:00,
2013-01-16 04:38:00,31.0,11.6,30.19,WSW,251,11.0,11.0,44,0.00,,,0.00,Wunderground v.1.15,2013-01-16 11:38:00,
2013-01-16 04:43:00,31.3,11.9,30.19,WSW,239,4.0,11.0,44,0.00,,,0.00,Wunderground v.1.15,2013-01-16 11:43:00,
2013-01-16 04:48:00,31.6,12.2,30.18,West,264,8.0,13.0,44,0.00,,,0.00,Wunderground v.1.15,2013-01-16 11:48:00,
2013-01-16 04:53:00,31.3,11.9,30.18,WSW,241,10.0,14.0,44,0.00,,,0.00,Wunderground v.1.15,2013-01-16 11:53:00,
2013-01-16 04:58:00,31.5,12.1,30.18,SW,224,7.0,15.0,44,0.00,,,0.00,Wunderground v.1.15,2013-01-16 11:58:00,
2013-01-16 05:03:00,31.5,12.1,30.19,WSW,251,14.0,15.0,44,0.00,,,0.00,Wunderground v.1.15,2013-01-16 12:03:00,
2013-01-16 05:09:00,31.5,11.5,30.19,SW,229,7.0,15.0,43,0.00,,,0.00,Wunderground v.1.15,2013-01-16 12:09:00,
2013-01-16 05:14:00,31.5,11.5,30.19,WSW,243,4.0,8.0,43,0.00,,,0.00,Wunderground v.1.15,2013-01-16 12:14:00,
2013-01-16 05:19:00,30.9,11.0,30.19,WSW,253,9.0,15.0,43,0.00,,,0.00,Wunderground v.1.15,2013-01-16 12:19:00,
2013-01-16 05:24:00,30.9,11.0,30.19,WSW,246,9.0,14.0,43,0.00,,,0.00,Wunderground v.1.15,2013-01-16 12:24:00,
2013-01-16 05:29:00,30.6,10.7,30.19,West,271,14.0,14.0,43,0.00,,,0.00,Wunderground v.1.15,2013-01-16 12:29:00,
2013-01-16 05:34:00,30.3,11.0,30.22,WSW,240,11.0,11.0,44,0.00,,,0.00,Wunderground v.1.15,2013-01-16 12:34:00,
2013-01-16 05:39:00,30.3,11.0,30.22,WSW,248,4.0,11.0,44,0.00,,,0.00,Wunderground v.1.15,2013-01-16 12:39:00,
2013-01-16 05:45:00,30.4,11.1,30.22,WSW,256,6.0,11.0,44,0.00,,,0.00,Wunderground v.1.15,2013-01-16 12:45:00,
2013-01-16 05:50:00,30.4,11.1,30.22,WSW,239,8.0,16.0,44,0.00,,,0.00,Wunderground v.1.15,2013-01-16 12:50:00,
2013-01-16 05:55:00,30.1,10.8,30.22,NW,305,16.0,18.0,44,0.00,,,0.00,Wunderground v.1.15,2013-01-16 12:55:00,
2013-01-16 06:00:00,29.5,10.2,30.22,West,265,15.0,18.0,44,0.00,,,0.00,Wunderground v.1.15,2013-01-16 13:00:00,
2013-01-16 06:05:00,29.7,10.4,30.23,South,191,13.0,15.0,44,0.00,,,0.00,Wunderground v.1.15,2013-01-16 13:05:00,
2013-01-16 06:10:00,30.1,10.8,30.23,SW,216,9.0,18.0,44,0.00,,,0.00,Wunderground v.1.15,2013-01-16 13:10:00,
2013-01-16 06:16:00,30.6,10.7,30.23,WSW,254,11.0,16.0,43,0.00,,,0.00,Wunderground v.1.15,2013-01-16 13:16:00,
2013-01-16 06:21:00,30.3,11.0,30.24,WSW,243,7.0,8.0,44,0.00,,,0.00,Wunderground v.1.15,2013-01-16 13:21:00,
2013-01-16 06:26:00,30.1,10.8,30.24,WSW,243,7.0,16.0,44,0.00,,,0.00,Wunderground v.1.15,2013-01-16 13:26:00,
2013-01-16 06:31:00,30.3,11.0,30.24,WSW,246,6.0,9.0,44,0.00,,,0.00,Wunderground v.1.15,2013-01-16 13:31:00,
2013-01-16 06:36:00,30.1,10.8,30.24,WSW,244,14.0,14.0,44,0.00,,,0.00,Wunderground v.1.15,2013-01-16 13:36:00,
2013-01-16 06:41:00,30.4,11.1,30.24,WSW,254,8.0,11.0,44,0.00,,,0.00,Wunderground v.1.15,2013-01-16 13:41:00,
2013-01-16 06:46:00,30.4,10.5,30.24,West,281,8.0,14.0,43,0.00,,,0.00,Wunderground v.1.15,2013-01-16 13:46:00,
2013-01-16 06:51:00,30.4,10.5,30.24,West,281,9.0,13.0,43,0.00,,,0.00,Wunderground v.1.15,2013-01-16 13:51:00,
2013-01-16 06:56:00,30.4,10.5,30.24,WNW,296,16.0,16.0,43,0.00,,,0.00,Wunderground v.1.15,2013-01-16 13:56:00,
2013-01-16 07:01:00,30.1,10.8,30.24,WSW,257,6.0,14.0,44,0.00,,,0.00,Wunderground v.1.15,2013-01-16 14:01:00,
2013-01-16 07:07:00,30.4,11.1,30.24,WSW,246,11.0,14.0,44,0.00,,,0.00,Wunderground v.1.15,2013-01-16 14:07:00,
2013-01-16 07:12:00,30.3,11.0,30.24,West,278,8.0,9.0,44,0.00,,,0.00,Wunderground v.1.15,2013-01-16 14:12:00,
2013-01-16 07:17:00,30.1,10.8,30.25,WSW,244,6.0,9.0,44,0.00,,,0.00,Wunderground v.1.15,2013-01-16 14:17:00,
2013-01-16 07:22:00,30.3,11.5,30.25,WSW,247,9.0,15.0,45,0.00,,,0.00,Wunderground v.1.15,2013-01-16 14:22:00,
2013-01-16 07:27:00,30.3,11.0,30.25,WSW,239,8.0,17.0,44,0.00,,,0.00,Wunderground v.1.15,2013-01-16 14:27:00,
2013-01-16 07:32:00,29.8,10.5,30.25,West,268,9.0,16.0,44,0.00,,,0.00,Wunderground v.1.15,2013-01-16 14:32:00,
2013-01-16 07:37:00,29.8,10.5,30.25,West,274,10.0,16.0,44,0.00,,,0.00,Wunderground v.1.15,2013-01-16 14:37:00,
2013-01-16 07:42:00,29.8,11.0,30.25,WSW,258,6.0,10.0,45,0.00,,,0.00,Wunderground v.1.15,2013-01-16 14:42:00,
2013-01-16 07:47:00,29.8,11.0,30.25,West,268,11.0,11.0,45,0.00,,,0.00,Wunderground v.1.15,2013-01-16 14:47:00,
2013-01-16 07:52:00,30.1,11.3,30.25,WSW,258,10.0,10.0,45,0.00,,,0.00,Wunderground v.1.15,2013-01-16 14:52:00,
2013-01-16 07:57:00,30.3,11.0,30.25,West,268,9.0,13.0,44,0.00,,,0.00,Wunderground v.1.15,2013-01-16 14:57:00,
2013-01-16 08:03:00,30.1,10.8,30.26,WSW,239,10.0,10.0,44,0.00,,,0.00,Wunderground v.1.15,2013-01-16 15:03:00,
2013-01-16 08:08:00,30.1,10.8,30.26,West,265,9.0,16.0,44,0.00,,,0.00,Wunderground v.1.15,2013-01-16 15:08:00,
2013-01-16 08:13:00,30.1,10.8,30.26,West,274,11.0,11.0,44,0.00,,,0.00,Wunderground v.1.15,2013-01-16 15:13:00,
2013-01-16 08:18:00,30.1,10.8,30.28,West,275,7.0,11.0,44,0.00,,,0.00,Wunderground v.1.15,2013-01-16 15:18:00,
2013-01-16 08:23:00,30.9,11.5,30.28,WNW,295,6.0,11.0,44,0.00,,,0.00,Wunderground v.1.15,2013-01-16 15:23:00,
2013-01-16 08:28:00,30.7,11.3,30.28,WSW,250,8.0,15.0,44,0.00,,,0.00,Wunderground v.1.15,2013-01-16 15:28:00,
2013-01-16 08:33:00,31.0,10.6,30.27,SW,232,7.0,15.0,42,0.00,,,0.00,Wunderground v.1.15,2013-01-16 15:33:00,
2013-01-16 08:38:00,31.2,10.7,30.27,WSW,250,2.0,15.0,42,0.00,,,0.00,Wunderground v.1.15,2013-01-16 15:38:00,
2013-01-16 08:44:00,31.8,11.3,30.27,West,264,10.0,15.0,42,0.00,,,0.00,Wunderground v.1.15,2013-01-16 15:44:00,
2013-01-16 08:49:00,31.8,11.3,30.27,WSW,248,6.0,15.0,42,0.00,,,0.00,Wunderground v.1.15,2013-01-16 15:49:00,
2013-01-16 08:54:00,32.4,11.3,30.27,WSW,240,6.0,10.0,41,0.00,,,0.00,Wunderground v.1.15,2013-01-16 15:54:00,
2013-01-16 08:59:00,32.9,11.2,30.27,WSW,247,8.0,10.0,40,0.00,,,0.00,Wunderground v.1.15,2013-01-16 15:59:00,
2013-01-16 09:04:00,33.4,11.6,30.27,West,277,11.0,13.0,40,0.00,,,0.00,Wunderground v.1.15,2013-01-16 16:04:00,
2013-01-16 09:09:00,33.4,11.1,30.27,West,271,10.0,16.0,39,0.00,,,0.00,Wunderground v.1.15,2013-01-16 16:09:00,
2013-01-16 09:14:00,33.4,11.1,30.27,WSW,246,7.0,13.0,39,0.00,,,0.00,Wunderground v.1.15,2013-01-16 16:14:00,
2013-01-16 09:19:00,33.5,11.2,30.29,West,267,6.0,17.0,39,0.00,,,0.00,Wunderground v.1.15,2013-01-16 16:19:00,
2013-01-16 09:25:00,33.7,10.7,30.29,WSW,246,8.0,21.0,38,0.00,,,0.00,Wunderground v.1.15,2013-01-16 16:25:00,
2013-01-16 09:30:00,33.8,10.8,30.29,SW,230,10.0,21.0,38,0.00,,,0.00,Wunderground v.1.15,2013-01-16 16:30:00,
2013-01-16 09:35:00,34.1,11.1,30.27,WSW,239,7.0,16.0,38,0.00,,,0.00,Wunderground v.1.15,2013-01-16 16:35:00,
2013-01-16 09:40:00,34.3,10.7,30.27,WSW,253,8.0,16.0,37,0.00,,,0.00,Wunderground v.1.15,2013-01-16 16:40:00,
2013-01-16 09:45:00,34.3,10.7,30.27,SW,233,10.0,14.0,37,0.00,,,0.00,Wunderground v.1.15,2013-01-16 16:45:00,
2013-01-16 09:51:00,34.3,10.7,30.27,WSW,243,6.0,10.0,37,0.00,,,0.00,Wunderground v.1.15,2013-01-16 16:51:00,
2013-01-16 09:56:00,34.1,9.9,30.27,West,267,16.0,20.0,36,0.00,,,0.00,Wunderground v.1.15,2013-01-16 16:56:00,
2013-01-16 10:01:00,34.3,10.1,30.27,SW,229,9.0,10.0,36,0.00,,,0.00,Wunderground v.1.15,2013-01-16 17:01:00,
2013-01-16 10:06:00,34.7,9.8,30.27,WSW,244,13.0,15.0,35,0.00,,,0.00,Wunderground v.1.15,2013-01-16 17:06:00,
2013-01-16 10:11:00,34.7,9.8,30.27,WSW,239,15.0,17.0,35,0.00,,,0.00,Wunderground v.1.15,2013-01-16 17:11:00,
2013-01-16 10:16:00,34.7,9.8,30.27,West,268,8.0,17.0,35,0.00,,,0.00,Wunderground v.1.15,2013-01-16 17:16:00,
2013-01-16 10:21:00,35.5,10.5,30.27,SW,232,7.0,13.0,35,0.00,,,0.00,Wunderground v.1.15,2013-01-16 17:21:00,
2013-01-16 10:26:00,36.0,10.3,30.27,WSW,258,15.0,15.0,34,0.00,,,0.00,Wunderground v.1.15,2013-01-16 17:26:00,
2013-01-16 10:31:00,36.2,9.8,30.27,WSW,250,6.0,9.0,33,0.00,,,0.00,Wunderground v.1.15,2013-01-16 17:31:00,
2013-01-16 10:36:00,36.8,11.0,30.26,SW,226,11.0,14.0,34,0.00,,,0.00,Wunderground v.1.15,2013-01-16 17:36:00,
2013-01-16 10:41:00,37.3,10.1,30.26,West,260,6.0,9.0,32,0.00,,,0.00,Wunderground v.1.15,2013-01-16 17:41:00,
2013-01-16 10:46:00,37.5,9.6,30.26,WSW,256,11.0,21.0,31,0.00,,,0.00,Wunderground v.1.15,2013-01-16 17:46:00,
2013-01-16 10:52:00,37.5,10.3,30.25,West,268,8.0,11.0,32,0.00,,,0.00,Wunderground v.1.15,2013-01-16 17:52:00,
2013-01-16 10:57:00,37.8,9.8,30.25,WSW,248,6.0,13.0,31,0.00,,,0.00,Wunderground v.1.15,2013-01-16 17:57:00,
2013-01-16 11:02:00,37.8,9.8,30.25,WSW,258,11.0,16.0,31,0.00,,,0.00,Wunderground v.1.15,2013-01-16 18:02:00,
2013-01-16 11:07:00,37.8,9.8,30.25,SW,227,7.0,18.0,31,0.00,,,0.00,Wunderground v.1.15,2013-01-16 18:07:00,
2013-01-16 11:12:00,37.8,9.8,30.25,SW,232,7.0,10.0,31,0.00,,,0.00,Wunderground v.1.15,2013-01-16 18:12:00,
2013-01-16 11:17:00,37.2,9.3,30.26,WSW,251,4.0,15.0,31,0.00,,,0.00,Wunderground v.1.15,2013-01-16 18:17:00,
2013-01-16 11:23:00,38.0,10.0,30.26,West,260,9.0,14.0,31,0.00,,,0.00,Wunderground v.1.15,2013-01-16 18:23:00,
2013-01-16 11:28:00,38.0,9.3,30.26,SW,215,15.0,15.0,30,0.00,,,0.00,Wunderground v.1.15,2013-01-16 18:28:00,
2013-01-16 11:33:00,38.6,9.0,30.24,SSE,152,11.0,16.0,29,0.00,,,0.00,Wunderground v.1.15,2013-01-16 18:33:00,
2013-01-16 11:38:00,39.1,8.7,30.24,SSW,205,7.0,16.0,28,0.00,,,0.00,Wunderground v.1.15,2013-01-16 18:38:00,
2013-01-16 11:43:00,39.1,8.7,30.24,SW,236,2.0,8.0,28,0.00,,,0.00,Wunderground v.1.15,2013-01-16 18:43:00,
2013-01-16 11:48:00,39.2,8.8,30.24,WSW,257,9.0,10.0,28,0.00,,,0.00,Wunderground v.1.15,2013-01-16 18:48:00,
2013-01-16 11:54:00,39.3,8.9,30.24,WSW,258,18.0,18.0,28,0.00,,,0.00,Wunderground v.1.15,2013-01-16 18:54:00,
2013-01-16 11:59:00,39.5,9.0,30.24,West,280,17.0,18.0,28,0.00,,,0.00,Wunderground v.1.15,2013-01-16 18:59:00,
2013-01-16 12:04:00,39.5,9.0,30.24,SW,230,6.0,17.0,28,0.00,,,0.00,Wunderground v.1.15,2013-01-16 19:04:00,
2013-01-16 12:09:00,39.8,8.5,30.24,West,268,11.0,17.0,27,0.00,,,0.00,Wunderground v.1.15,2013-01-16 19:09:00,
2013-01-16 12:14:00,39.9,9.4,30.24,WSW,244,6.0,14.0,28,0.00,,,0.00,Wunderground v.1.15,2013-01-16 19:14:00,
2013-01-16 12:19:00,39.9,9.4,30.23,SW,234,2.0,14.0,28,0.00,,,0.00,Wunderground v.1.15,2013-01-16 19:19:00,
2013-01-16 12:24:00,39.8,8.5,30.23,SW,217,7.0,17.0,27,0.00,,,0.00,Wunderground v.1.15,2013-01-16 19:24:00,
2013-01-16 12:29:00,39.6,9.1,30.23,WNW,288,1.0,17.0,28,0.00,,,0.00,Wunderground v.1.15,2013-01-16 19:29:00,
2013-01-16 12:34:00,39.5,9.0,30.23,West,271,11.0,16.0,28,0.00,,,0.00,Wunderground v.1.15,2013-01-16 19:34:00,
2013-01-16 12:40:00,39.2,8.8,30.23,WSW,251,8.0,16.0,28,0.00,,,0.00,Wunderground v.1.15,2013-01-16 19:40:00,
2013-01-16 12:45:00,39.2,8.8,30.23,West,280,6.0,11.0,28,0.00,,,0.00,Wunderground v.1.15,2013-01-16 19:45:00,
2013-01-16 12:50:00,39.1,8.7,30.24,West,270,7.0,14.0,28,0.00,,,0.00,Wunderground v.1.15,2013-01-16 19:50:00,
2013-01-16 12:55:00,39.1,7.9,30.24,SW,232,10.0,15.0,27,0.00,,,0.00,Wunderground v.1.15,2013-01-16 19:55:00,
2013-01-16 13:00:00,39.2,8.8,30.24,West,270,11.0,11.0,28,0.00,,,0.00,Wunderground v.1.15,2013-01-16 20:00:00,
2013-01-16 13:05:00,38.9,8.5,30.24,WSW,237,10.0,21.0,28,0.00,,,0.00,Wunderground v.1.15,2013-01-16 20:05:00,
2013-01-16 13:10:00,38.8,7.6,30.24,WSW,250,2.0,8.0,27,0.00,,,0.00,Wunderground v.1.15,2013-01-16 20:10:00,
2013-01-16 13:15:00,39.1,8.7,30.24,West,281,9.0,13.0,28,0.00,,,0.00,Wunderground v.1.15,2013-01-16 20:15:00,
2013-01-16 13:21:00,39.2,8.8,30.23,WSW,246,8.0,9.0,28,0.00,,,0.00,Wunderground v.1.15,2013-01-16 20:21:00,
2013-01-16 13:26:00,39.2,8.0,30.23,WSW,247,8.0,11.0,27,0.00,,,0.00,Wunderground v.1.15,2013-01-16 20:26:00,
2013-01-16 13:31:00,39.5,8.2,30.23,WSW,239,4.0,8.0,27,0.00,,,0.00,Wunderground v.1.15,2013-01-16 20:31:00,
2013-01-16 13:36:00,40.3,8.9,30.22,WSW,251,9.0,13.0,27,0.00,,,0.00,Wunderground v.1.15,2013-01-16 20:36:00,
2013-01-16 13:41:00,40.8,8.5,30.22,WSW,246,7.0,8.0,26,0.00,,,0.00,Wunderground v.1.15,2013-01-16 20:41:00,
2013-01-16 13:46:00,40.8,8.5,30.20,WSW,244,6.0,14.0,26,0.00,,,0.00,Wunderground v.1.15,2013-01-16 20:46:00,
2013-01-16 13:52:00,41.1,8.8,30.20,West,277,10.0,17.0,26,0.00,,,0.00,Wunderground v.1.15,2013-01-16 20:52:00,
2013-01-16 13:57:00,41.3,8.9,30.20,West,265,8.0,17.0,26,0.00,,,0.00,Wunderground v.1.15,2013-01-16 20:57:00,
2013-01-16 14:02:00,41.3,8.9,30.20,West,268,1.0,11.0,26,0.00,,,0.00,Wunderground v.1.15,2013-01-16 21:02:00,
2013-01-16 14:07:00,41.3,8.9,30.20,WSW,256,8.0,11.0,26,0.00,,,0.00,Wunderground v.1.15,2013-01-16 21:07:00,
2013-01-16 14:12:00,42.1,9.6,30.20,WSW,240,10.0,10.0,26,0.00,,,0.00,Wunderground v.1.15,2013-01-16 21:12:00,
2013-01-16 14:17:00,42.1,9.6,30.21,West,263,1.0,10.0,26,0.00,,,0.00,Wunderground v.1.15,2013-01-16 21:17:00,
2013-01-16 14:22:00,42.2,8.8,30.21,West,264,6.0,6.0,25,0.00,,,0.00,Wunderground v.1.15,2013-01-16 21:22:00,
2013-01-16 14:27:00,42.3,8.9,30.21,SW,233,7.0,9.0,25,0.00,,,0.00,Wunderground v.1.15,2013-01-16 21:27:00,
2013-01-16 14:33:00,42.1,8.7,30.21,WSW,241,2.0,11.0,25,0.00,,,0.00,Wunderground v.1.15,2013-01-16 21:33:00,
2013-01-16 14:38:00,41.8,8.5,30.21,SW,233,2.0,15.0,25,0.00,,,0.00,Wunderground v.1.15,2013-01-16 21:38:00,
2013-01-16 14:43:00,41.6,8.3,30.21,SW,236,6.0,8.0,25,0.00,,,0.00,Wunderground v.1.15,2013-01-16 21:43:00,
2013-01-16 14:48:00,41.6,9.2,30.22,SW,233,8.0,10.0,26,0.00,,,0.00,Wunderground v.1.15,2013-01-16 21:48:00,
2013-01-16 14:53:00,41.2,8.8,30.22,WSW,239,6.0,17.0,26,0.00,,,0.00,Wunderground v.1.15,2013-01-16 21:53:00,
2013-01-16 14:58:00,40.8,9.3,30.22,WSW,254,6.0,17.0,27,0.00,,,0.00,Wunderground v.1.15,2013-01-16 21:58:00,
2013-01-16 15:03:00,40.9,9.4,30.22,WSW,240,9.0,11.0,27,0.00,,,0.00,Wunderground v.1.15,2013-01-16 22:03:00,
2013-01-16 15:08:00,40.3,8.9,30.22,SSW,209,6.0,17.0,27,0.00,,,0.00,Wunderground v.1.15,2013-01-16 22:08:00,
2013-01-16 15:14:00,40.8,9.3,30.22,WSW,240,14.0,14.0,27,0.00,,,0.00,Wunderground v.1.15,2013-01-16 22:14:00,
2013-01-16 15:19:00,40.6,9.2,30.24,WSW,237,4.0,14.0,27,0.00,,,0.00,Wunderground v.1.15,2013-01-16 22:19:00,
2013-01-16 15:24:00,41.1,9.6,30.24,WSW,241,6.0,8.0,27,0.00,,,0.00,Wunderground v.1.15,2013-01-16 22:24:00,
2013-01-16 15:29:00,41.2,9.7,30.24,WNW,285,8.0,10.0,27,0.00,,,0.00,Wunderground v.1.15,2013-01-16 22:29:00,
2013-01-16 15:34:00,41.2,8.8,30.24,WSW,253,0.0,11.0,26,0.00,,,0.00,Wunderground v.1.15,2013-01-16 22:34:00,
2013-01-16 15:39:00,40.9,9.4,30.24,WSW,246,4.0,11.0,27,0.00,,,0.00,Wunderground v.1.15,2013-01-16 22:39:00,
2013-01-16 15:45:00,40.6,9.2,30.24,WSW,246,4.0,9.0,27,0.00,,,0.00,Wunderground v.1.15,2013-01-16 22:45:00,
2013-01-16 15:50:00,39.9,9.4,30.24,West,280,11.0,13.0,28,0.00,,,0.00,Wunderground v.1.15,2013-01-16 22:50:00,
2013-01-16 15:55:00,40.1,8.7,30.24,WSW,240,2.0,11.0,27,0.00,,,0.00,Wunderground v.1.15,2013-01-16 22:55:00,
2013-01-16 16:00:00,39.6,9.1,30.24,WSW,247,6.0,11.0,28,0.00,,,0.00,Wunderground v.1.15,2013-01-16 23:00:00,
2013-01-16 16:05:00,39.2,8.8,30.25,WSW,241,7.0,11.0,28,0.00,,,0.00,Wunderground v.1.15,2013-01-16 23:05:00,
2013-01-16 16:10:00,39.1,8.7,30.25,SW,220,8.0,8.0,28,0.00,,,0.00,Wunderground v.1.15,2013-01-16 23:10:00,
2013-01-16 16:15:00,38.3,8.0,30.25,West,261,10.0,15.0,28,0.00,,,0.00,Wunderground v.1.15,2013-01-16 23:15:00,
2013-01-16 16:21:00,38.6,7.4,30.26,WSW,244,7.0,8.0,27,0.00,,,0.00,Wunderground v.1.15,2013-01-16 23:21:00,
2013-01-16 16:26:00,38.0,6.9,30.26,SSW,193,2.0,13.0,27,0.00,,,0.00,Wunderground v.1.15,2013-01-16 23:26:00,
2013-01-16 16:31:00,37.8,8.3,30.26,West,268,6.0,6.0,29,0.00,,,0.00,Wunderground v.1.15,2013-01-16 23:31:00,
2013-01-16 16:36:00,37.3,7.9,30.26,SW,233,4.0,9.0,29,0.00,,,0.00,Wunderground v.1.15,2013-01-16 23:36:00,
2013-01-16 16:41:00,36.9,8.3,30.26,WSW,250,1.0,9.0,30,0.00,,,0.00,Wunderground v.1.15,2013-01-16 23:41:00,
2013-01-16 16:46:00,36.6,8.0,30.28,WSW,237,9.0,15.0,30,0.00,,,0.00,Wunderground v.1.15,2013-01-16 23:46:00,
2013-01-16 16:51:00,35.9,8.9,30.28,WSW,253,4.0,9.0,32,0.00,,,0.00,Wunderground v.1.15,2013-01-16 23:51:00,
2013-01-16 16:57:00,35.6,8.6,30.28,WSW,244,1.0,9.0,32,0.00,,,0.00,Wunderground v.1.15,2013-01-16 23:57:00,
2013-01-16 17:02:00,35.5,8.5,30.29,WSW,250,2.0,6.0,32,0.00,,,0.00,Wunderground v.1.15,2013-01-17 00:02:00,
2013-01-16 17:07:00,35.5,8.5,30.29,WSW,246,4.0,6.0,32,0.00,,,0.00,Wunderground v.1.15,2013-01-17 00:07:00,
2013-01-16 17:12:00,35.5,8.5,30.29,SW,230,4.0,9.0,32,0.00,,,0.00,Wunderground v.1.15,2013-01-17 00:12:00,
2013-01-16 17:17:00,35.3,9.0,30.30,WSW,237,4.0,11.0,33,0.00,,,0.00,Wunderground v.1.15,2013-01-17 00:17:00,
2013-01-16 17:22:00,35.3,9.0,30.30,WSW,246,8.0,8.0,33,0.00,,,0.00,Wunderground v.1.15,2013-01-17 00:22:00,
2013-01-16 17:27:00,35.3,8.3,30.30,WSW,258,7.0,13.0,32,0.00,,,0.00,Wunderground v.1.15,2013-01-17 00:27:00,
2013-01-16 17:32:00,35.2,8.2,30.32,WSW,248,10.0,14.0,32,0.00,,,0.00,Wunderground v.1.15,2013-01-17 00:32:00,
2013-01-16 17:37:00,34.9,8.7,30.32,WSW,254,7.0,14.0,33,0.00,,,0.00,Wunderground v.1.15,2013-01-17 00:37:00,
2013-01-16 17:43:00,34.7,8.5,30.32,SSW,206,6.0,14.0,33,0.00,,,0.00,Wunderground v.1.15,2013-01-17 00:43:00,
2013-01-16 17:48:00,35.2,8.2,30.33,WSW,257,2.0,14.0,32,0.00,,,0.00,Wunderground v.1.15,2013-01-17 00:48:00,
2013-01-16 17:53:00,35.2,8.2,30.33,WSW,246,10.0,10.0,32,0.00,,,0.00,Wunderground v.1.15,2013-01-17 00:53:00,
2013-01-16 17:58:00,35.3,7.6,30.33,WSW,254,4.0,11.0,31,0.00,,,0.00,Wunderground v.1.15,2013-01-17 00:58:00,
2013-01-16 18:03:00,35.3,7.6,30.33,West,264,8.0,8.0,31,0.00,,,0.00,Wunderground v.1.15,2013-01-17 01:03:00,
2013-01-16 18:08:00,35.3,7.6,30.33,SW,227,4.0,8.0,31,0.00,,,0.00,Wunderground v.1.15,2013-01-17 01:08:00,
2013-01-16 18:13:00,35.5,7.8,30.33,WSW,243,2.0,6.0,31,0.00,,,0.00,Wunderground v.1.15,2013-01-17 01:13:00,
2013-01-16 18:18:00,35.6,7.9,30.32,WSW,248,4.0,9.0,31,0.00,,,0.00,Wunderground v.1.15,2013-01-17 01:18:00,
2013-01-16 18:23:00,35.3,7.6,30.32,SW,233,2.0,8.0,31,0.00,,,0.00,Wunderground v.1.15,2013-01-17 01:23:00,
2013-01-16 18:29:00,35.0,7.4,30.32,SW,236,2.0,8.0,31,0.00,,,0.00,Wunderground v.1.15,2013-01-17 01:29:00,
2013-01-16 18:34:00,34.7,7.8,30.35,WSW,253,1.0,9.0,32,0.00,,,0.00,Wunderground v.1.15,2013-01-17 01:34:00,
2013-01-16 18:39:00,34.7,7.8,30.35,WSW,253,4.0,9.0,32,0.00,,,0.00,Wunderground v.1.15,2013-01-17 01:39:00,
2013-01-16 18:44:00,34.6,7.7,30.35,WSW,246,0.0,8.0,32,0.00,,,0.00,Wunderground v.1.15,2013-01-17 01:44:00,
2013-01-16 18:49:00,34.6,7.7,30.35,WSW,243,7.0,8.0,32,0.00,,,0.00,Wunderground v.1.15,2013-01-17 01:49:00,
2013-01-16 18:54:00,34.4,7.5,30.35,SW,232,2.0,9.0,32,0.00,,,0.00,Wunderground v.1.15,2013-01-17 01:54:00,
2013-01-16 18:59:00,34.3,8.1,30.35,SSW,212,1.0,10.0,33,0.00,,,0.00,Wunderground v.1.15,2013-01-17 01:59:00,
2013-01-16 19:04:00,34.1,8.0,30.35,SW,222,4.0,6.0,33,0.00,,,0.00,Wunderground v.1.15,2013-01-17 02:04:00,
2013-01-16 19:09:00,34.4,7.5,30.35,WSW,246,7.0,8.0,32,0.00,,,0.00,Wunderground v.1.15,2013-01-17 02:09:00,
2013-01-16 19:15:00,34.4,7.5,30.35,WSW,251,7.0,8.0,32,0.00,,,0.00,Wunderground v.1.15,2013-01-17 02:15:00,
2013-01-16 19:20:00,34.3,7.4,30.35,SW,224,2.0,8.0,32,0.00,,,0.00,Wunderground v.1.15,2013-01-17 02:20:00,
2013-01-16 19:25:00,34.3,7.4,30.35,WSW,251,4.0,8.0,32,0.00,,,0.00,Wunderground v.1.15,2013-01-17 02:25:00,
2013-01-16 19:30:00,34.1,7.3,30.35,WSW,250,6.0,8.0,32,0.00,,,0.00,Wunderground v.1.15,2013-01-17 02:30:00,
2013-01-16 19:35:00,34.1,8.0,30.36,WSW,250,2.0,7.0,33,0.00,,,0.00,Wunderground v.1.15,2013-01-17 02:35:00,
2013-01-16 19:40:00,33.8,7.7,30.36,WSW,251,0.0,4.0,33,0.00,,,0.00,Wunderground v.1.15,2013-01-17 02:40:00,
2013-01-16 19:45:00,33.4,8.0,30.36,WSW,257,2.0,8.0,34,0.00,,,0.00,Wunderground v.1.15,2013-01-17 02:45:00,
2013-01-16 19:50:00,33.2,7.8,30.38,WSW,256,1.0,2.0,34,0.00,,,0.00,Wunderground v.1.15,2013-01-17 02:50:00,
2013-01-16 19:56:00,33.2,7.8,30.38,WSW,256,2.0,4.0,34,0.00,,,0.00,Wunderground v.1.15,2013-01-17 02:56:00,
2013-01-16 20:01:00,33.4,8.0,30.38,WSW,248,2.0,2.0,34,0.00,,,0.00,Wunderground v.1.15,2013-01-17 03:01:00,
2013-01-16 20:06:00,33.5,8.1,30.37,WSW,250,0.0,6.0,34,0.00,,,0.00,Wunderground v.1.15,2013-01-17 03:06:00,
2013-01-16 20:11:00,33.5,8.1,30.37,WSW,254,2.0,4.0,34,0.00,,,0.00,Wunderground v.1.15,2013-01-17 03:11:00,
2013-01-16 20:16:00,33.1,7.7,30.37,WSW,253,2.0,7.0,34,0.00,,,0.00,Wunderground v.1.15,2013-01-17 03:16:00,
2013-01-16 20:21:00,33.1,7.7,30.36,WSW,257,1.0,7.0,34,0.00,,,0.00,Wunderground v.1.15,2013-01-17 03:21:00,
2013-01-16 20:26:00,32.8,8.1,30.36,WSW,258,4.0,7.0,35,0.00,,,0.00,Wunderground v.1.15,2013-01-17 03:26:00,
2013-01-16 20:31:00,32.9,8.2,30.36,WSW,257,2.0,6.0,35,0.00,,,0.00,Wunderground v.1.15,2013-01-17 03:31:00,
2013-01-16 20:36:00,33.1,8.4,30.36,WSW,257,1.0,6.0,35,0.00,,,0.00,Wunderground v.1.15,2013-01-17 03:36:00,
2013-01-16 20:41:00,33.4,7.3,30.36,WSW,257,2.0,2.0,33,0.00,,,0.00,Wunderground v.1.15,2013-01-17 03:41:00,
2013-01-16 20:46:00,33.4,7.3,30.36,WSW,257,0.0,6.0,33,0.00,,,0.00,Wunderground v.1.15,2013-01-17 03:46:00,
2013-01-16 20:51:00,33.5,7.4,30.36,WSW,250,2.0,8.0,33,0.00,,,0.00,Wunderground v.1.15,2013-01-17 03:51:00,
2013-01-16 20:57:00,33.8,7.7,30.36,WSW,250,2.0,9.0,33,0.00,,,0.00,Wunderground v.1.15,2013-01-17 03:57:00,
2013-01-16 21:02:00,33.8,7.7,30.36,West,277,4.0,4.0,33,0.00,,,0.00,Wunderground v.1.15,2013-01-17 04:02:00,
2013-01-16 21:07:00,33.7,7.6,30.36,WSW,250,1.0,11.0,33,0.00,,,0.00,Wunderground v.1.15,2013-01-17 04:07:00,
2013-01-16 21:12:00,33.4,8.0,30.36,West,260,2.0,4.0,34,0.00,,,0.00,Wunderground v.1.15,2013-01-17 04:12:00,
2013-01-16 21:17:00,33.2,7.8,30.34,WSW,244,7.0,9.0,34,0.00,,,0.00,Wunderground v.1.15,2013-01-17 04:17:00,
2013-01-16 21:22:00,33.1,7.7,30.34,WSW,244,0.0,6.0,34,0.00,,,0.00,Wunderground v.1.15,2013-01-17 04:22:00,
2013-01-16 21:28:00,32.9,7.6,30.34,WSW,244,2.0,6.0,34,0.00,,,0.00,Wunderground v.1.15,2013-01-17 04:28:00,
2013-01-16 21:33:00,32.5,7.8,30.35,WSW,247,1.0,2.0,35,0.00,,,0.00,Wunderground v.1.15,2013-01-17 04:33:00,
2013-01-16 21:38:00,32.1,8.1,30.35,WSW,251,0.0,2.0,36,0.00,,,0.00,Wunderground v.1.15,2013-01-17 04:38:00,
2013-01-16 21:43:00,32.1,8.1,30.35,WSW,253,1.0,4.0,36,0.00,,,0.00,Wunderground v.1.15,2013-01-17 04:43:00,
2013-01-16 21:48:00,31.9,7.9,30.36,WSW,253,0.0,6.0,36,0.00,,,0.00,Wunderground v.1.15,2013-01-17 04:48:00,
2013-01-16 21:53:00,31.6,7.7,30.36,WSW,256,2.0,2.0,36,0.00,,,0.00,Wunderground v.1.15,2013-01-17 04:53:00,
2013-01-16 21:58:00,31.5,8.2,30.36,WSW,257,4.0,6.0,37,0.00,,,0.00,Wunderground v.1.15,2013-01-17 04:58:00,
2013-01-16 22:01:00,31.5,8.2,30.36,WSW,258,2.0,3.0,37,0.00,,,0.00,Wunderground v.1.15,2013-01-17 05:01:00,
2013-01-16 22:02:00,31.5,8.2,30.37,West,260,1.0,7.0,37,0.00,,,0.00,Wunderground v.1.15,2013-01-17 05:02:00,
2013-01-16 22:03:00,31.5,8.2,30.37,West,260,4.0,7.0,37,0.00,,,0.00,Wunderground v.1.15,2013-01-17 05:03:00,
2013-01-16 22:05:00,31.5,8.2,30.37,West,263,2.0,7.0,37,0.00,,,0.00,Wunderground v.1.15,2013-01-17 05:05:00,
2013-01-16 22:11:00,31.5,8.2,30.37,West,261,0.0,2.0,37,0.00,,,0.00,Wunderground v.1.15,2013-01-17 05:11:00,
2013-01-16 22:16:00,31.2,7.9,30.37,West,261,2.0,2.0,37,0.00,,,0.00,Wunderground v.1.15,2013-01-17 05:16:00,
2013-01-16 22:21:00,30.7,8.1,30.36,West,261,4.0,4.0,38,0.00,,,0.00,Wunderground v.1.15,2013-01-17 05:21:00,
2013-01-16 22:26:00,31.3,8.6,30.36,WSW,257,4.0,6.0,38,0.00,,,0.00,Wunderground v.1.15,2013-01-17 05:26:00,
2013-01-16 22:31:00,31.9,7.9,30.36,WSW,257,1.0,3.0,36,0.00,,,0.00,Wunderground v.1.15,2013-01-17 05:31:00,
2013-01-16 22:36:00,32.4,7.7,30.34,WSW,254,4.0,7.0,35,0.00,,,0.00,Wunderground v.1.15,2013-01-17 05:36:00,
2013-01-16 22:41:00,32.7,8.0,30.34,WSW,254,7.0,7.0,35,0.00,,,0.00,Wunderground v.1.15,2013-01-17 05:41:00,
2013-01-16 22:46:00,32.9,7.6,30.34,WSW,253,4.0,7.0,34,0.00,,,0.00,Wunderground v.1.15,2013-01-17 05:46:00,
2013-01-16 22:52:00,32.8,7.5,30.34,WSW,253,7.0,7.0,34,0.00,,,0.00,Wunderground v.1.15,2013-01-17 05:52:00,
2013-01-16 22:57:00,32.9,7.6,30.34,WSW,251,6.0,7.0,34,0.00,,,0.00,Wunderground v.1.15,2013-01-17 05:57:00,
2013-01-16 23:02:00,32.9,7.6,30.35,WSW,251,2.0,3.0,34,0.00,,,0.00,Wunderground v.1.15,2013-01-17 06:02:00,
2013-01-16 23:07:00,33.1,7.7,30.35,WSW,253,4.0,6.0,34,0.00,,,0.00,Wunderground v.1.15,2013-01-17 06:07:00,
2013-01-16 23:12:00,32.9,7.6,30.35,WSW,253,0.0,2.0,34,0.00,,,0.00,Wunderground v.1.15,2013-01-17 06:12:00,
2013-01-16 23:17:00,32.5,7.8,30.34,WSW,253,0.0,2.0,35,0.00,,,0.00,Wunderground v.1.15,2013-01-17 06:17:00,
2013-01-16 23:22:00,31.9,7.3,30.34,WSW,253,0.0,2.0,35,0.00,,,0.00,Wunderground v.1.15,2013-01-17 06:22:00,
2013-01-16 23:28:00,30.6,6.1,30.34,WSW,253,2.0,4.0,35,0.00,,,0.00,Wunderground v.1.15,2013-01-17 06:28:00,
2013-01-16 23:33:00,29.8,7.8,30.35,WSW,253,0.0,1.0,39,0.00,,,0.00,Wunderground v.1.15,2013-01-17 06:33:00,
2013-01-16 23:38:00,29.4,7.5,30.35,WSW,257,0.0,7.0,39,0.00,,,0.00,Wunderground v.1.15,2013-01-17 06:38:00,
2013-01-16 23:43:00,30.3,8.3,30.35,WSW,257,4.0,6.0,39,0.00,,,0.00,Wunderground v.1.15,2013-01-17 06:43:00,
2013-01-16 23:48:00,31.5,9.4,30.34,WSW,256,0.0,6.0,39,0.00,,,0.00,Wunderground v.1.15,2013-01-17 06:48:00,
2013-01-16 23:53:00,32.1,9.9,30.34,WSW,256,0.0,2.0,39,0.00,,,0.00,Wunderground v.1.15,2013-01-17 06:53:00,
2013-01-16 23:59:00,32.1,9.9,30.34,WSW,256,4.0,4.0,39,0.00,,,0.00,Wunderground v.1.15,2013-01-17 06:59:00,